WetterOnline ( https://www.wetteronline.de )

Wetter aktuell Moers

Aktuelles Wetter: Düsseldorf/Flughafen (41m)

6-stündlich | Neueste Meldungen
Ortszeit Temperatur Wetter
So, 03.07. 2:00 15.0° C leicht bewölkt
Sa, 02.07. 20:00 25.9° C wolkig
Sa, 02.07. 14:00 24.5° C wolkig
Sa, 02.07. 8:00 15.8° C wolkenlos
Sa, 02.07. 2:00 12.6° C wolkenlos
Fr, 01.07. 20:00 21.1° C wolkig
Fr, 01.07. 14:00 20.1° C wolkig
Fr, 01.07. 8:00 14.2° C bewölkt
Ortszeit Temperatur Wetter
So, 03.07. 7:00 16.7° C leicht bewölkt
So, 03.07. 6:50 16.7° C leicht bewölkt
So, 03.07. 6:40 17.0° C leicht bewölkt
So, 03.07. 6:30 15.4° C wolkenlos
So, 03.07. 6:20 15.4° C wolkenlos
So, 03.07. 6:10 14.0° C wolkenlos
So, 03.07. 6:00 13.9° C wolkenlos
So, 03.07. 5:30 13.6° C leicht bewölkt
So, 03.07. 5:00 14.4° C wolkig
So, 03.07. 4:30 14.3° C wolkig
So, 03.07. 4:00 14.6° C wolkig
So, 03.07. 3:30 14.8° C wolkenlos
Ortszeit Relative Feuchte Sichtweite
So, 03.07. 2:00 84% 60 km
Sa, 02.07. 20:00 37% >70 km
Sa, 02.07. 14:00 37% 50 km
Sa, 02.07. 8:00 72% 60 km
Sa, 02.07. 2:00 88% 55 km
Fr, 01.07. 20:00 43% >70 km
Fr, 01.07. 14:00 49% 65 km
Fr, 01.07. 8:00 91% 45 km
Ortszeit Relative Feuchte Sichtweite
So, 03.07. 7:00 76% 55 km
So, 03.07. 6:50 76% -
So, 03.07. 6:40 75% -
So, 03.07. 6:30 83% 55 km
So, 03.07. 6:20 83% -
So, 03.07. 6:10 90% -
So, 03.07. 6:00 89% 60 km
So, 03.07. 5:30 92% >70 km
So, 03.07. 5:00 88% 65 km
So, 03.07. 4:30 87% >70 km
So, 03.07. 4:00 85% >70 km
So, 03.07. 3:30 85% >70 km
Ortszeit Niederschlagsmenge Niederschlagsart
So, 03.07. 2:00 0.0 l/m2 in 6 Std. -
Sa, 02.07. 20:00 0.0 l/m2 in 12 Std. -
Sa, 02.07. 14:00 0.0 l/m2 in 6 Std. -
Sa, 02.07. 8:00 0.0 l/m2 in 12 Std. -
Sa, 02.07. 2:00 0.0 l/m2 in 6 Std. -
Fr, 01.07. 20:00 0.0 l/m2 in 12 Std. -
Fr, 01.07. 14:00 0.0 l/m2 in 6 Std. -
Fr, 01.07. 8:00 2 l/m2 in 12 Std. -
Ortszeit Niederschlagsmenge Niederschlagsart
So, 03.07. 7:00 0.0 l/m2 in 1 Std. -
So, 03.07. 6:50 keine Meldung -
So, 03.07. 6:40 keine Meldung -
So, 03.07. 6:30 0.0 l/m2 in 1 Std. -
So, 03.07. 6:20 keine Meldung -
So, 03.07. 6:10 keine Meldung -
So, 03.07. 6:00 0.0 l/m2 in 1 Std. -
So, 03.07. 5:30 0.0 l/m2 in 1 Std. -
So, 03.07. 5:00 0.0 l/m2 in 1 Std. -
So, 03.07. 4:30 0.0 l/m2 in 1 Std. -
So, 03.07. 4:00 0.0 l/m2 in 1 Std. -
So, 03.07. 3:30 0.0 l/m2 in 1 Std. -
Ortszeit Stärke Spitze Richtung
km/h Bft. km/h Grad Sektor
So, 03.07. 2:00 6 1 22 80° O
Sa, 02.07. 20:00 11 2 58 230° SW
Sa, 02.07. 14:00 18 3 32 190° S
Sa, 02.07. 8:00 14 3 25 150° SO
Sa, 02.07. 2:00 7 2 29 120° SO
Fr, 01.07. 20:00 18 3 36 270° W
Fr, 01.07. 14:00 20 4 37 270° W
Fr, 01.07. 8:00 15 3 24 230° SW
Ortszeit Stärke Spitze Richtung
km/h Bft. km/h Grad Sektor
So, 03.07. 7:00 6 1 15 240° SW
So, 03.07. 6:50 6 1 - 240° SW
So, 03.07. 6:40 7 2 - 230° SW
So, 03.07. 6:30 7 2 14 240° SW
So, 03.07. 6:20 7 2 - 240° SW
So, 03.07. 6:10 4 1 - 250° W
So, 03.07. 6:00 4 1 4 230° SW
So, 03.07. 5:30 0 0 4 - -
So, 03.07. 5:00 2 1 4 350° N
So, 03.07. 4:30 2 1 4 50° NO
So, 03.07. 4:00 2 1 4 60° NO
So, 03.07. 3:30 4 1 4 40° NO
Ortszeit Untergrenze Bedeckung Gattung
total tief tief mittel hoch
So, 03.07. 2:00 2400 m 3/8 3/8 - - -
Sa, 02.07. 20:00 2400 m 6/8 4/8 - - -
Sa, 02.07. 14:00 1800 m 7/8 2/8 - - -
Sa, 02.07. 8:00 - 0/8 0/8 - - -
Sa, 02.07. 2:00 - 0/8 0/8 - - -
Fr, 01.07. 20:00 2400 m 5/8 5/8 - - -
Fr, 01.07. 14:00 1200 m 6/8 2/8 - - -
Fr, 01.07. 8:00 390 m 8/8 4/8 - - -
Ortszeit Bedeckungsgrad in Achtel und Wolkenuntergrenze
So, 03.07. 7:00 3(2100m)
So, 03.07. 6:50 3(2100m)
So, 03.07. 6:40 3
So, 03.07. 6:30 keine Wolken
So, 03.07. 6:20 keine Wolken
So, 03.07. 6:10 keine Wolken
So, 03.07. 6:00 keine Wolken
So, 03.07. 5:30 2(3900m)
So, 03.07. 5:00 3(2400m) 7(3600m)
So, 03.07. 4:30 5(2400m)
So, 03.07. 4:00 6(2400m)
So, 03.07. 3:30 keine Wolken
Ortszeit Luftdruck NN (hPa) Tendenz (hPa in 3 Std.)
So, 03.07. 2:00 1018 - 0,2
Sa, 02.07. 20:00 1018 - 1,6
Sa, 02.07. 14:00 1021 - 1,3
Sa, 02.07. 8:00 1023 + 0,5
Sa, 02.07. 2:00 1023 + 0,8
Fr, 01.07. 20:00 1020 + 0,6
Fr, 01.07. 14:00 1018 - 0,1
Fr, 01.07. 8:00 1017 + 0,4
Ortszeit Luftdruck NN (hPa) Tendenz (hPa in 3 Std.)
So, 03.07. 7:00 1018 + 0,5
So, 03.07. 6:50 1018 keine Meldung
So, 03.07. 6:40 1018 keine Meldung
So, 03.07. 6:30 1018 + 0,2
So, 03.07. 6:20 1018 keine Meldung
So, 03.07. 6:10 1018 keine Meldung
So, 03.07. 6:00 1017 - 0,3
So, 03.07. 5:30 1017 - 0,6
So, 03.07. 5:00 1017 - 0,6
So, 03.07. 4:30 1017 - 1,0
So, 03.07. 4:00 1017 - 0,7
So, 03.07. 3:30 1017 - 0,6
Ortszeit Schneehöhe (cm)
So, 03.07. 2:00 -
Sa, 02.07. 20:00 -
Sa, 02.07. 14:00 -
Sa, 02.07. 8:00 -
Sa, 02.07. 2:00 -
Fr, 01.07. 20:00 -
Fr, 01.07. 14:00 -
Fr, 01.07. 8:00 -
Ortszeit Schneehöhe (cm)
So, 03.07. 7:00 -
So, 03.07. 6:50 -
So, 03.07. 6:40 -
So, 03.07. 6:30 -
So, 03.07. 6:20 -
So, 03.07. 6:10 -
So, 03.07. 6:00 -
So, 03.07. 5:30 -
So, 03.07. 5:00 -
So, 03.07. 4:30 -
So, 03.07. 4:00 -
So, 03.07. 3:30 -
Link zu dieser Seite / Seite empfehlen

Das Wetter in ...